Time,TemperatureF,DewpointF,PressureIn,WindDirection,WindDirectionDegrees,WindSpeedMPH,WindSpeedGustMPH,Humidity,HourlyPrecipIn,Conditions,Clouds,dailyrainin,SoftwareType,DateUTC
2013-02-21 00:02:00,20.8,19.2,29.66,SE,143,0.0,1.0,93,0.00,,,0.00,meteohub,2013-02-21 07:02:00,
2013-02-21 00:07:00,20.8,19.2,29.66,NNW,335,2.0,2.0,93,0.00,,,0.00,meteohub,2013-02-21 07:07:00,
2013-02-21 00:12:00,20.8,19.2,29.66,NNW,328,1.0,2.0,93,0.00,,,0.00,meteohub,2013-02-21 07:12:00,
2013-02-21 00:17:00,20.8,19.2,29.66,NW,326,0.0,2.0,93,0.00,,,0.00,meteohub,2013-02-21 07:17:00,
2013-02-21 00:22:00,20.8,19.2,29.66,West,280,0.0,2.0,93,0.00,,,0.00,meteohub,2013-02-21 07:22:00,
2013-02-21 00:27:00,20.8,19.2,29.66,WNW,287,0.0,2.0,93,0.00,,,0.00,meteohub,2013-02-21 07:27:00,
2013-02-21 00:32:00,20.8,19.2,29.66,WNW,284,0.0,1.0,93,0.00,,,0.00,meteohub,2013-02-21 07:32:00,
2013-02-21 00:37:00,20.8,19.2,29.66,WNW,287,0.0,1.0,93,0.00,,,0.00,meteohub,2013-02-21 07:37:00,
2013-02-21 00:42:00,20.8,19.2,29.66,WNW,287,0.0,1.0,93,0.00,,,0.00,meteohub,2013-02-21 07:42:00,
2013-02-21 00:47:00,20.8,19.2,29.66,West,281,1.0,1.0,93,0.00,,,0.00,meteohub,2013-02-21 07:47:00,
2013-02-21 00:52:00,21.0,19.4,29.66,West,277,1.0,1.0,93,0.00,,,0.00,meteohub,2013-02-21 07:52:00,
2013-02-21 00:57:00,21.0,19.4,29.66,WNW,297,0.0,1.0,93,0.00,,,0.00,meteohub,2013-02-21 07:57:00,
2013-02-21 01:02:00,20.8,18.9,29.66,WNW,297,0.0,1.0,92,0.00,,,0.00,meteohub,2013-02-21 08:02:00,
2013-02-21 01:07:00,20.8,19.2,29.66,WNW,296,0.0,1.0,93,0.00,,,0.00,meteohub,2013-02-21 08:07:00,
2013-02-21 01:12:00,20.8,19.2,29.65,NNW,329,1.0,1.0,93,0.00,,,0.00,meteohub,2013-02-21 08:12:00,
2013-02-21 01:17:00,20.8,19.2,29.65,NW,308,0.0,2.0,93,0.00,,,0.00,meteohub,2013-02-21 08:17:00,
2013-02-21 01:22:00,20.8,19.2,29.66,NW,322,2.0,2.0,93,0.00,,,0.00,meteohub,2013-02-21 08:22:00,
2013-02-21 01:27:00,20.8,19.2,29.66,NNW,328,3.0,3.0,93,0.00,,,0.00,meteohub,2013-02-21 08:27:00,
2013-02-21 01:32:00,20.7,19.0,29.66,NW,322,2.0,4.0,93,0.00,,,0.00,meteohub,2013-02-21 08:32:00,
2013-02-21 01:37:00,20.5,18.5,29.66,NNW,328,3.0,4.0,92,0.00,,,0.00,meteohub,2013-02-21 08:37:00,
2013-02-21 01:42:00,20.3,18.7,29.66,NW,325,2.0,4.0,93,0.00,,,0.00,meteohub,2013-02-21 08:42:00,
2013-02-21 01:47:00,20.1,18.1,29.66,NNW,328,2.0,4.0,92,0.00,,,0.00,meteohub,2013-02-21 08:47:00,
2013-02-21 01:52:00,19.9,18.0,29.66,NNW,332,2.0,4.0,92,0.00,,,0.00,meteohub,2013-02-21 08:52:00,
2013-02-21 01:57:00,19.8,17.8,29.66,NW,326,4.0,5.0,92,0.00,,,0.00,meteohub,2013-02-21 08:57:00,
2013-02-21 02:02:00,19.6,17.6,29.66,NNW,329,4.0,5.0,92,0.00,,,0.00,meteohub,2013-02-21 09:02:00,
2013-02-21 02:07:00,19.4,17.4,29.66,NW,316,4.0,5.0,92,0.00,,,0.00,meteohub,2013-02-21 09:07:00,
2013-02-21 02:12:00,19.4,17.4,29.66,NNW,328,2.0,5.0,92,0.00,,,0.00,meteohub,2013-02-21 09:12:00,
2013-02-21 02:17:00,19.6,17.6,29.66,WNW,289,3.0,5.0,92,0.00,,,0.00,meteohub,2013-02-21 09:17:00,
2013-02-21 02:22:00,19.6,17.6,29.65,NW,316,2.0,4.0,92,0.00,,,0.00,meteohub,2013-02-21 09:22:00,
2013-02-21 02:27:00,19.4,17.4,29.65,NW,307,1.0,4.0,92,0.00,,,0.00,meteohub,2013-02-21 09:27:00,
2013-02-21 02:32:00,19.4,17.4,29.65,WNW,299,1.0,4.0,92,0.00,,,0.00,meteohub,2013-02-21 09:32:00,
2013-02-21 02:37:00,19.6,17.6,29.65,NNW,328,3.0,3.0,92,0.00,,,0.00,meteohub,2013-02-21 09:37:00,
2013-02-21 02:42:00,19.6,17.6,29.65,NW,326,2.0,4.0,92,0.00,,,0.00,meteohub,2013-02-21 09:42:00,
2013-02-21 02:47:00,19.4,17.4,29.65,NNW,328,2.0,4.0,92,0.00,,,0.00,meteohub,2013-02-21 09:47:00,
2013-02-21 02:52:00,19.6,17.6,29.65,NNW,328,3.0,4.0,92,0.00,,,0.00,meteohub,2013-02-21 09:52:00,
2013-02-21 02:57:00,19.6,17.6,29.65,NNW,328,3.0,4.0,92,0.00,,,0.00,meteohub,2013-02-21 09:57:00,
2013-02-21 03:02:00,19.6,17.6,29.65,NNW,333,5.0,5.0,92,0.00,,,0.00,meteohub,2013-02-21 10:02:00,
2013-02-21 03:07:00,19.4,17.2,29.65,NW,323,3.0,6.0,91,0.00,,,0.00,meteohub,2013-02-21 10:07:00,
2013-02-21 03:12:00,19.4,17.4,29.65,NW,326,3.0,6.0,92,0.00,,,0.00,meteohub,2013-02-21 10:12:00,
2013-02-21 03:17:00,19.2,17.1,29.65,NW,315,3.0,6.0,91,0.00,,,0.00,meteohub,2013-02-21 10:17:00,
2013-02-21 03:22:00,19.0,17.1,29.65,NW,326,4.0,6.0,92,0.00,,,0.00,meteohub,2013-02-21 10:22:00,
2013-02-21 03:27:00,19.0,17.1,29.65,NW,309,2.0,6.0,92,0.00,,,0.00,meteohub,2013-02-21 10:27:00,
2013-02-21 03:32:00,19.0,17.1,29.65,NNW,328,4.0,6.0,92,0.00,,,0.00,meteohub,2013-02-21 10:32:00,
2013-02-21 03:37:00,19.0,17.1,29.65,NW,316,2.0,6.0,92,0.00,,,0.00,meteohub,2013-02-21 10:37:00,
2013-02-21 03:42:00,19.0,17.1,29.65,NW,326,3.0,5.0,92,0.00,,,0.00,meteohub,2013-02-21 10:42:00,
2013-02-21 03:47:00,19.2,17.2,29.65,NNW,330,5.0,5.0,92,0.00,,,0.00,meteohub,2013-02-21 10:47:00,
2013-02-21 03:52:00,19.2,17.2,29.65,NW,320,3.0,6.0,92,0.00,,,0.00,meteohub,2013-02-21 10:52:00,
2013-02-21 03:57:00,19.2,17.2,29.65,NNW,328,3.0,6.0,92,0.00,,,0.00,meteohub,2013-02-21 10:57:00,
2013-02-21 04:02:00,19.2,17.2,29.65,NNW,329,5.0,6.0,92,0.00,,,0.00,meteohub,2013-02-21 11:02:00,
2013-02-21 04:07:00,19.2,17.2,29.65,NW,319,3.0,5.0,92,0.00,,,0.00,meteohub,2013-02-21 11:07:00,
2013-02-21 04:12:00,19.2,17.2,29.65,NW,314,3.0,5.0,92,0.00,,,0.00,meteohub,2013-02-21 11:12:00,
2013-02-21 04:17:00,19.2,17.2,29.65,NNW,328,1.0,5.0,92,0.00,,,0.00,meteohub,2013-02-21 11:17:00,
2013-02-21 04:22:00,19.2,17.2,29.65,WNW,296,1.0,3.0,92,0.00,,,0.00,meteohub,2013-02-21 11:22:00,
2013-02-21 04:27:00,19.2,17.2,29.66,NW,309,0.0,3.0,92,0.00,,,0.00,meteohub,2013-02-21 11:27:00,
2013-02-21 04:32:00,19.2,17.2,29.65,NW,322,2.0,2.0,92,0.00,,,0.00,meteohub,2013-02-21 11:32:00,
2013-02-21 04:37:00,19.4,17.4,29.66,NW,323,1.0,2.0,92,0.00,,,0.00,meteohub,2013-02-21 11:37:00,
2013-02-21 04:42:00,19.6,17.4,29.66,NW,319,0.0,2.0,91,0.00,,,0.00,meteohub,2013-02-21 11:42:00,
2013-02-21 04:47:00,19.6,17.4,29.66,NW,321,0.0,2.0,91,0.00,,,0.00,meteohub,2013-02-21 11:47:00,
2013-02-21 04:52:00,19.6,17.4,29.66,NW,321,0.0,2.0,91,0.00,,,0.00,meteohub,2013-02-21 11:52:00,
2013-02-21 04:57:00,19.6,17.6,29.66,NNW,340,0.0,1.0,92,0.00,,,0.00,meteohub,2013-02-21 11:57:00,
2013-02-21 05:02:00,19.6,17.6,29.67,North,353,0.0,1.0,92,0.00,,,0.00,meteohub,2013-02-21 12:02:00,
2013-02-21 05:07:00,19.4,17.4,29.67,North,353,0.0,1.0,92,0.00,,,0.00,meteohub,2013-02-21 12:07:00,
2013-02-21 05:12:00,19.4,17.4,29.67,North,352,0.0,1.0,92,0.00,,,0.00,meteohub,2013-02-21 12:12:00,
2013-02-21 05:17:00,19.6,18.0,29.67,North,352,0.0,0.0,93,0.00,,,0.00,meteohub,2013-02-21 12:17:00,
2013-02-21 05:22:00,19.2,17.2,29.68,SW,226,0.0,1.0,92,0.00,,,0.00,meteohub,2013-02-21 12:22:00,
2013-02-21 05:27:00,19.2,17.2,29.68,SW,229,0.0,1.0,92,0.00,,,0.00,meteohub,2013-02-21 12:27:00,
2013-02-21 05:32:00,19.4,17.8,29.68,SW,230,1.0,1.0,93,0.00,,,0.00,meteohub,2013-02-21 12:32:00,
2013-02-21 05:37:00,19.6,17.6,29.68,SW,219,0.0,1.0,92,0.00,,,0.00,meteohub,2013-02-21 12:37:00,
2013-02-21 05:42:00,19.4,17.4,29.68,SSW,200,0.0,1.0,92,0.00,,,0.00,meteohub,2013-02-21 12:42:00,
2013-02-21 05:47:00,19.2,17.2,29.68,SSW,198,0.0,2.0,92,0.00,,,0.00,meteohub,2013-02-21 12:47:00,
2013-02-21 05:52:00,19.0,16.9,29.68,SSE,165,2.0,2.0,91,0.00,,,0.00,meteohub,2013-02-21 12:52:00,
2013-02-21 05:57:00,18.9,16.9,29.68,SSW,204,1.0,3.0,92,0.00,,,0.00,meteohub,2013-02-21 12:57:00,
2013-02-21 06:02:00,18.9,16.9,29.68,SSW,194,2.0,3.0,92,0.00,,,0.00,meteohub,2013-02-21 13:02:00,
2013-02-21 06:07:00,18.9,16.9,29.68,SSE,162,2.0,3.0,92,0.00,,,0.00,meteohub,2013-02-21 13:07:00,
2013-02-21 06:12:00,18.9,16.9,29.69,SSE,155,0.0,3.0,92,0.00,,,0.00,meteohub,2013-02-21 13:12:00,
2013-02-21 06:17:00,18.9,16.9,29.69,SSE,162,3.0,4.0,92,0.00,,,0.00,meteohub,2013-02-21 13:17:00,
2013-02-21 06:22:00,18.9,16.9,29.69,South,186,1.0,4.0,92,0.00,,,0.00,meteohub,2013-02-21 13:22:00,
2013-02-21 06:27:00,18.7,16.7,29.69,SSW,212,1.0,4.0,92,0.00,,,0.00,meteohub,2013-02-21 13:27:00,
2013-02-21 06:32:00,18.7,16.7,29.69,SSW,198,1.0,4.0,92,0.00,,,0.00,meteohub,2013-02-21 13:32:00,
2013-02-21 06:37:00,18.9,16.9,29.69,South,191,1.0,4.0,92,0.00,,,0.00,meteohub,2013-02-21 13:37:00,
2013-02-21 06:42:00,18.9,16.9,29.70,South,179,3.0,4.0,92,0.00,,,0.00,meteohub,2013-02-21 13:42:00,
2013-02-21 06:47:00,18.9,16.9,29.70,SSE,159,2.0,5.0,92,0.00,,,0.00,meteohub,2013-02-21 13:47:00,
2013-02-21 06:52:00,18.9,16.9,29.70,SSE,162,3.0,5.0,92,0.00,,,0.00,meteohub,2013-02-21 13:52:00,
2013-02-21 06:57:00,18.9,16.9,29.70,North,6,3.0,5.0,92,0.00,,,0.00,meteohub,2013-02-21 13:57:00,
2013-02-21 07:02:00,18.9,16.9,29.70,South,186,1.0,4.0,92,0.00,,,0.00,meteohub,2013-02-21 14:02:00,
2013-02-21 07:07:00,18.9,16.9,29.71,SSW,195,1.0,4.0,92,0.00,,,0.00,meteohub,2013-02-21 14:07:00,
2013-02-21 07:12:00,19.0,17.1,29.71,South,185,2.0,3.0,92,0.00,,,0.00,meteohub,2013-02-21 14:12:00,
2013-02-21 07:17:00,19.0,17.1,29.71,South,188,2.0,3.0,92,0.00,,,0.00,meteohub,2013-02-21 14:17:00,
2013-02-21 07:22:00,19.0,17.1,29.72,SSE,165,2.0,3.0,92,0.00,,,0.00,meteohub,2013-02-21 14:22:00,
2013-02-21 07:27:00,19.0,17.1,29.72,South,191,1.0,3.0,92,0.00,,,0.00,meteohub,2013-02-21 14:27:00,
2013-02-21 07:32:00,19.0,17.1,29.72,SSW,195,2.0,3.0,92,0.00,,,0.00,meteohub,2013-02-21 14:32:00,
2013-02-21 07:37:00,19.2,17.2,29.73,SSW,193,3.0,4.0,92,0.00,,,0.00,meteohub,2013-02-21 14:37:00,
2013-02-21 07:42:00,19.2,17.2,29.73,SSW,203,3.0,4.0,92,0.00,,,0.00,meteohub,2013-02-21 14:42:00,
2013-02-21 07:47:00,19.2,17.2,29.73,SE,142,2.0,4.0,92,0.00,,,0.00,meteohub,2013-02-21 14:47:00,
2013-02-21 07:52:00,19.4,17.4,29.73,SSW,200,2.0,4.0,92,0.00,,,0.00,meteohub,2013-02-21 14:52:00,
2013-02-21 07:57:00,19.6,17.6,29.74,SSW,198,1.0,5.0,92,0.00,,,0.00,meteohub,2013-02-21 14:57:00,
2013-02-21 08:02:00,19.6,17.6,29.74,SW,236,1.0,5.0,92,0.00,,,0.00,meteohub,2013-02-21 15:02:00,
2013-02-21 08:07:00,19.8,17.8,29.74,SSE,152,1.0,5.0,92,0.00,,,0.00,meteohub,2013-02-21 15:07:00,
2013-02-21 08:12:00,19.9,18.0,29.74,WSW,246,1.0,4.0,92,0.00,,,0.00,meteohub,2013-02-21 15:12:00,
2013-02-21 08:17:00,20.1,18.1,29.75,SW,218,2.0,4.0,92,0.00,,,0.00,meteohub,2013-02-21 15:17:00,
2013-02-21 08:22:00,20.5,18.5,29.75,SSW,198,2.0,4.0,92,0.00,,,0.00,meteohub,2013-02-21 15:22:00,
2013-02-21 08:27:00,20.7,18.5,29.75,SSE,165,1.0,4.0,91,0.00,,,0.00,meteohub,2013-02-21 15:27:00,
2013-02-21 08:32:00,20.8,18.7,29.75,South,176,3.0,3.0,91,0.00,,,0.00,meteohub,2013-02-21 15:32:00,
2013-02-21 08:37:00,21.0,18.9,29.75,SE,132,2.0,5.0,91,0.00,,,0.00,meteohub,2013-02-21 15:37:00,
2013-02-21 08:42:00,21.0,18.9,29.75,SSW,198,2.0,5.0,91,0.00,,,0.00,meteohub,2013-02-21 15:42:00,
2013-02-21 08:47:00,21.4,19.2,29.75,SE,143,2.0,5.0,91,0.00,,,0.00,meteohub,2013-02-21 15:47:00,
2013-02-21 08:52:00,21.6,19.0,29.75,SE,132,1.0,4.0,90,0.00,,,0.00,meteohub,2013-02-21 15:52:00,
2013-02-21 08:57:00,21.7,19.2,29.75,SE,124,3.0,5.0,90,0.00,,,0.00,meteohub,2013-02-21 15:57:00,
2013-02-21 09:02:00,21.9,19.4,29.75,SSE,153,2.0,5.0,90,0.00,,,0.00,meteohub,2013-02-21 16:02:00,
2013-02-21 09:07:00,22.1,19.6,29.76,SSE,165,1.0,5.0,90,0.00,,,0.00,meteohub,2013-02-21 16:07:00,
2013-02-21 09:12:00,22.5,19.8,29.75,SSE,163,3.0,5.0,89,0.00,,,0.00,meteohub,2013-02-21 16:12:00,
2013-02-21 09:17:00,22.6,19.9,29.75,SE,146,2.0,5.0,89,0.00,,,0.00,meteohub,2013-02-21 16:17:00,
2013-02-21 09:22:00,22.6,19.9,29.76,SE,145,4.0,5.0,89,0.00,,,0.00,meteohub,2013-02-21 16:22:00,
2013-02-21 09:27:00,23.0,20.3,29.76,SSE,150,3.0,5.0,89,0.00,,,0.00,meteohub,2013-02-21 16:27:00,
2013-02-21 09:32:00,23.5,20.8,29.76,SSE,156,6.0,6.0,89,0.00,,,0.00,meteohub,2013-02-21 16:32:00,
2013-02-21 09:37:00,24.1,21.0,29.76,SSE,154,3.0,6.0,88,0.00,,,0.00,meteohub,2013-02-21 16:37:00,
2013-02-21 09:42:00,24.3,21.0,29.76,SE,135,3.0,6.0,87,0.00,,,0.00,meteohub,2013-02-21 16:42:00,
2013-02-21 09:47:00,24.4,20.8,29.76,SE,126,3.0,6.0,86,0.00,,,0.00,meteohub,2013-02-21 16:47:00,
2013-02-21 09:52:00,24.1,20.8,29.76,SE,140,2.0,6.0,87,0.00,,,0.00,meteohub,2013-02-21 16:52:00,
2013-02-21 09:57:00,24.6,21.4,29.76,South,184,2.0,6.0,87,0.00,,,0.00,meteohub,2013-02-21 16:57:00,
2013-02-21 10:02:00,25.0,21.4,29.76,ESE,121,2.0,6.0,86,0.00,,,0.00,meteohub,2013-02-21 17:02:00,
2013-02-21 10:07:00,25.5,21.4,29.76,SE,136,5.0,5.0,84,0.00,,,0.00,meteohub,2013-02-21 17:07:00,
2013-02-21 10:12:00,25.9,21.9,29.76,SE,140,5.0,6.0,85,0.00,,,0.00,meteohub,2013-02-21 17:12:00,
2013-02-21 10:17:00,25.9,21.4,29.76,SSE,149,4.0,6.0,83,0.00,,,0.00,meteohub,2013-02-21 17:17:00,
2013-02-21 10:22:00,25.7,21.2,29.76,SW,222,2.0,6.0,83,0.00,,,0.00,meteohub,2013-02-21 17:22:00,
2013-02-21 10:27:00,25.7,21.2,29.76,SSW,203,2.0,6.0,83,0.00,,,0.00,meteohub,2013-02-21 17:27:00,
2013-02-21 10:32:00,26.6,22.1,29.76,SSW,197,2.0,6.0,83,0.00,,,0.00,meteohub,2013-02-21 17:32:00,
2013-02-21 10:37:00,26.2,21.2,29.76,SE,139,3.0,6.0,81,0.00,,,0.00,meteohub,2013-02-21 17:37:00,
2013-02-21 10:42:00,26.1,20.7,29.76,ESE,119,4.0,6.0,80,0.00,,,0.00,meteohub,2013-02-21 17:42:00,
2013-02-21 10:47:00,26.4,20.8,29.76,SE,134,2.0,6.0,79,0.00,,,0.00,meteohub,2013-02-21 17:47:00,
2013-02-21 10:52:00,27.0,22.3,29.77,SSE,153,1.0,6.0,82,0.00,,,0.00,meteohub,2013-02-21 17:52:00,
2013-02-21 10:57:00,26.2,20.3,29.76,ESE,104,0.0,6.0,78,0.00,,,0.00,meteohub,2013-02-21 17:57:00,
2013-02-21 11:02:00,27.3,21.4,29.76,ENE,77,2.0,6.0,78,0.00,,,0.00,meteohub,2013-02-21 18:02:00,
2013-02-21 11:07:00,27.3,20.5,29.76,North,358,1.0,6.0,75,0.00,,,0.00,meteohub,2013-02-21 18:07:00,
2013-02-21 11:12:00,27.3,20.8,29.76,East,84,0.0,6.0,76,0.00,,,0.00,meteohub,2013-02-21 18:12:00,
2013-02-21 11:17:00,27.1,20.7,29.76,SE,142,3.0,6.0,76,0.00,,,0.00,meteohub,2013-02-21 18:17:00,
2013-02-21 11:22:00,27.1,20.8,29.76,SSW,212,1.0,6.0,77,0.00,,,0.00,meteohub,2013-02-21 18:22:00,
2013-02-21 11:27:00,27.5,20.3,29.77,ENE,78,0.0,4.0,74,0.00,,,0.00,meteohub,2013-02-21 18:27:00,
2013-02-21 11:32:00,28.0,20.1,29.76,NE,34,4.0,4.0,72,0.00,,,0.00,meteohub,2013-02-21 18:32:00,
2013-02-21 11:37:00,28.0,21.4,29.76,ESE,107,2.0,5.0,76,0.00,,,0.00,meteohub,2013-02-21 18:37:00,
2013-02-21 11:42:00,28.6,21.7,29.76,ESE,113,4.0,6.0,75,0.00,,,0.00,meteohub,2013-02-21 18:42:00,
2013-02-21 11:47:00,28.6,20.1,29.76,ENE,63,0.0,6.0,70,0.00,,,0.00,meteohub,2013-02-21 18:47:00,
2013-02-21 11:52:00,29.3,21.0,29.76,ESE,120,0.0,6.0,71,0.00,,,0.00,meteohub,2013-02-21 18:52:00,
2013-02-21 11:57:00,29.5,20.7,29.76,ENE,57,0.0,6.0,69,0.00,,,0.00,meteohub,2013-02-21 18:57:00,
2013-02-21 12:02:00,28.8,19.9,29.75,ENE,72,0.0,6.0,69,0.00,,,0.00,meteohub,2013-02-21 19:02:00,
2013-02-21 12:07:00,28.2,18.3,29.75,East,87,1.0,6.0,66,0.00,,,0.00,meteohub,2013-02-21 19:07:00,
2013-02-21 12:12:00,28.2,19.8,29.75,SE,124,4.0,6.0,70,0.00,,,0.00,meteohub,2013-02-21 19:12:00,
2013-02-21 12:17:00,28.6,19.8,29.75,ENE,61,4.0,6.0,69,0.00,,,0.00,meteohub,2013-02-21 19:17:00,
2013-02-21 12:22:00,28.4,19.2,29.75,NNE,18,3.0,6.0,68,0.00,,,0.00,meteohub,2013-02-21 19:22:00,
2013-02-21 12:27:00,28.9,18.7,29.75,SE,141,0.0,6.0,65,0.00,,,0.00,meteohub,2013-02-21 19:27:00,
2013-02-21 12:32:00,28.9,18.0,29.75,SE,140,1.0,6.0,63,0.00,,,0.00,meteohub,2013-02-21 19:32:00,
2013-02-21 12:37:00,29.7,18.7,29.75,East,94,3.0,6.0,63,0.00,,,0.00,meteohub,2013-02-21 19:37:00,
2013-02-21 12:42:00,28.8,18.5,29.75,ESE,104,3.0,6.0,65,0.00,,,0.00,meteohub,2013-02-21 19:42:00,
2013-02-21 12:47:00,28.2,18.3,29.75,ESE,107,2.0,7.0,66,0.00,,,0.00,meteohub,2013-02-21 19:47:00,
2013-02-21 12:52:00,27.9,18.3,29.75,ESE,117,4.0,7.0,67,0.00,,,0.00,meteohub,2013-02-21 19:52:00,
2013-02-21 12:57:00,28.8,20.3,29.75,SE,141,0.0,7.0,70,0.00,,,0.00,meteohub,2013-02-21 19:57:00,
2013-02-21 13:02:00,29.8,21.6,29.75,South,182,2.0,6.0,71,0.01,,,0.00,meteohub,2013-02-21 20:02:00,
2013-02-21 13:07:00,31.3,21.6,29.74,SW,228,1.0,5.0,67,0.01,,,0.01,meteohub,2013-02-21 20:07:00,
2013-02-21 13:12:00,30.6,19.8,29.74,East,93,3.0,6.0,64,0.01,,,0.01,meteohub,2013-02-21 20:12:00,
2013-02-21 13:17:00,30.2,20.8,29.74,SW,233,1.0,6.0,68,0.01,,,0.01,meteohub,2013-02-21 20:17:00,
2013-02-21 13:22:00,30.0,20.1,29.74,SE,129,4.0,6.0,66,0.01,,,0.01,meteohub,2013-02-21 20:22:00,
2013-02-21 13:27:00,30.4,21.4,29.74,SSE,152,6.0,7.0,69,0.01,,,0.01,meteohub,2013-02-21 20:27:00,
2013-02-21 13:32:00,30.7,21.0,29.74,SSE,167,3.0,8.0,67,0.02,,,0.02,meteohub,2013-02-21 20:32:00,
2013-02-21 13:37:00,31.1,20.3,29.73,SE,132,4.0,8.0,64,0.02,,,0.02,meteohub,2013-02-21 20:37:00,
2013-02-21 13:42:00,31.5,21.4,29.73,SE,125,3.0,8.0,66,0.02,,,0.02,meteohub,2013-02-21 20:42:00,
2013-02-21 13:47:00,31.3,21.6,29.73,SE,135,5.0,8.0,67,0.02,,,0.02,meteohub,2013-02-21 20:47:00,
2013-02-21 13:52:00,30.9,21.6,29.73,SSE,153,6.0,8.0,68,0.03,,,0.03,meteohub,2013-02-21 20:52:00,
2013-02-21 13:57:00,30.7,21.4,29.73,SSE,158,3.0,8.0,68,0.03,,,0.03,meteohub,2013-02-21 20:57:00,
2013-02-21 14:02:00,30.4,21.4,29.73,South,177,1.0,8.0,69,0.02,,,0.03,meteohub,2013-02-21 21:02:00,
2013-02-21 14:07:00,30.7,21.4,29.73,SSE,159,7.0,9.0,68,0.03,,,0.04,meteohub,2013-02-21 21:07:00,
2013-02-21 14:12:00,30.4,21.4,29.73,ESE,116,5.0,9.0,69,0.03,,,0.04,meteohub,2013-02-21 21:12:00,
2013-02-21 14:17:00,30.2,20.5,29.73,SSE,163,3.0,8.0,67,0.03,,,0.04,meteohub,2013-02-21 21:17:00,
2013-02-21 14:22:00,30.9,21.9,29.73,South,173,5.0,8.0,69,0.03,,,0.04,meteohub,2013-02-21 21:22:00,
2013-02-21 14:27:00,30.7,20.7,29.73,SE,145,1.0,8.0,66,0.02,,,0.04,meteohub,2013-02-21 21:27:00,
2013-02-21 14:32:00,31.3,20.1,29.73,East,83,1.0,7.0,63,0.02,,,0.04,meteohub,2013-02-21 21:32:00,
2013-02-21 14:37:00,31.3,21.9,29.74,ESE,115,4.0,7.0,68,0.02,,,0.04,meteohub,2013-02-21 21:37:00,
2013-02-21 14:42:00,30.9,20.5,29.74,ESE,117,0.0,6.0,65,0.03,,,0.05,meteohub,2013-02-21 21:42:00,
2013-02-21 14:47:00,31.1,20.7,29.74,East,96,2.0,6.0,65,0.02,,,0.05,meteohub,2013-02-21 21:47:00,
2013-02-21 14:52:00,31.5,20.3,29.74,ESE,102,2.0,6.0,63,0.02,,,0.05,meteohub,2013-02-21 21:52:00,
2013-02-21 14:57:00,31.5,20.7,29.74,East,93,0.0,6.0,64,0.02,,,0.05,meteohub,2013-02-21 21:57:00,
2013-02-21 15:02:00,30.9,19.8,29.74,ENE,68,1.0,6.0,63,0.02,,,0.05,meteohub,2013-02-21 22:02:00,
2013-02-21 15:07:00,30.7,18.5,29.74,ENE,78,1.0,5.0,60,0.01,,,0.05,meteohub,2013-02-21 22:07:00,
2013-02-21 15:12:00,30.7,19.2,29.75,ENE,70,1.0,5.0,62,0.01,,,0.05,meteohub,2013-02-21 22:12:00,
2013-02-21 15:17:00,30.7,19.6,29.75,NNE,25,1.0,4.0,63,0.01,,,0.05,meteohub,2013-02-21 22:17:00,
2013-02-21 15:22:00,30.6,19.0,29.75,East,98,3.0,5.0,62,0.01,,,0.05,meteohub,2013-02-21 22:22:00,
2013-02-21 15:27:00,30.6,19.8,29.75,NE,47,5.0,5.0,64,0.01,,,0.05,meteohub,2013-02-21 22:27:00,
2013-02-21 15:32:00,30.0,18.5,29.75,NNE,26,4.0,5.0,62,0.01,,,0.05,meteohub,2013-02-21 22:32:00,
2013-02-21 15:37:00,29.7,18.3,29.76,ENE,67,2.0,6.0,62,0.00,,,0.05,meteohub,2013-02-21 22:37:00,
2013-02-21 15:42:00,29.5,18.1,29.76,ESE,107,2.0,6.0,62,0.00,,,0.05,meteohub,2013-02-21 22:42:00,
2013-02-21 15:47:00,29.8,18.5,29.76,East,94,1.0,6.0,62,0.00,,,0.05,meteohub,2013-02-21 22:47:00,
2013-02-21 15:52:00,30.0,18.5,29.76,NE,55,0.0,3.0,62,0.01,,,0.06,meteohub,2013-02-21 22:52:00,
2013-02-21 15:57:00,30.4,18.5,29.76,NE,56,0.0,2.0,61,0.01,,,0.06,meteohub,2013-02-21 22:57:00,
2013-02-21 16:02:00,30.9,18.7,29.77,NNE,13,1.0,2.0,60,0.01,,,0.06,meteohub,2013-02-21 23:02:00,
2013-02-21 16:07:00,31.3,17.8,29.77,NE,55,2.0,2.0,57,0.01,,,0.06,meteohub,2013-02-21 23:07:00,
2013-02-21 16:12:00,31.3,16.2,29.77,ENE,61,3.0,3.0,53,0.01,,,0.06,meteohub,2013-02-21 23:12:00,
2013-02-21 16:17:00,31.5,17.2,29.77,ENE,67,4.0,4.0,55,0.01,,,0.06,meteohub,2013-02-21 23:17:00,
2013-02-21 16:22:00,31.5,16.3,29.77,ESE,104,2.0,5.0,53,0.01,,,0.06,meteohub,2013-02-21 23:22:00,
2013-02-21 16:27:00,31.6,16.5,29.77,NE,48,4.0,5.0,53,0.01,,,0.06,meteohub,2013-02-21 23:27:00,
2013-02-21 16:32:00,31.8,16.2,29.77,North,6,1.0,5.0,52,0.01,,,0.06,meteohub,2013-02-21 23:32:00,
2013-02-21 16:37:00,32.2,15.6,29.77,NNE,13,2.0,4.0,50,0.01,,,0.06,meteohub,2013-02-21 23:37:00,
2013-02-21 16:42:00,32.4,14.9,29.77,NNE,26,1.0,4.0,48,0.01,,,0.06,meteohub,2013-02-21 23:42:00,
2013-02-21 16:47:00,31.8,14.9,29.78,NNW,342,0.0,6.0,49,0.01,,,0.06,meteohub,2013-02-21 23:47:00,
2013-02-21 16:52:00,31.5,12.0,29.78,North,349,1.0,6.0,44,0.00,,,0.06,meteohub,2013-02-21 23:52:00,
2013-02-21 16:57:00,31.6,11.1,29.78,North,1,0.0,6.0,42,0.00,,,0.06,meteohub,2013-02-21 23:57:00,
2013-02-21 17:02:00,32.2,12.2,29.78,WNW,288,0.0,6.0,43,0.00,,,0.06,meteohub,2013-02-22 00:02:00,
2013-02-21 17:07:00,31.6,11.1,29.78,WSW,243,0.0,3.0,42,0.00,,,0.00,meteohub,2013-02-22 00:07:00,
2013-02-21 17:12:00,31.8,11.3,29.79,WSW,242,1.0,3.0,42,0.00,,,0.00,meteohub,2013-02-22 00:12:00,
2013-02-21 17:17:00,30.7,12.9,29.79,NW,311,0.0,3.0,47,0.00,,,0.00,meteohub,2013-02-22 00:17:00,
2013-02-21 17:22:00,29.5,11.7,29.79,NW,325,3.0,3.0,47,0.00,,,0.00,meteohub,2013-02-22 00:22:00,
2013-02-21 17:27:00,28.8,10.0,29.80,NNW,327,1.0,4.0,45,0.00,,,0.00,meteohub,2013-02-22 00:27:00,
2013-02-21 17:32:00,28.2,9.7,29.80,WSW,254,0.0,4.0,45,0.00,,,0.00,meteohub,2013-02-22 00:32:00,
2013-02-21 17:37:00,27.9,10.2,29.80,West,279,5.0,5.0,47,0.00,,,0.00,meteohub,2013-02-22 00:37:00,
2013-02-21 17:42:00,27.3,9.7,29.80,WNW,295,2.0,6.0,47,0.00,,,0.00,meteohub,2013-02-22 00:42:00,
2013-02-21 17:47:00,27.0,9.0,29.80,WNW,290,3.0,7.0,46,0.00,,,0.00,meteohub,2013-02-22 00:47:00,
2013-02-21 17:52:00,26.8,9.3,29.81,WNW,298,5.0,7.0,47,0.00,,,0.00,meteohub,2013-02-22 00:52:00,
2013-02-21 17:57:00,26.4,9.3,29.81,West,268,3.0,8.0,48,0.00,,,0.00,meteohub,2013-02-22 00:57:00,
2013-02-21 18:02:00,26.8,9.3,29.81,SW,235,4.0,10.0,47,0.00,,,0.00,meteohub,2013-02-22 01:02:00,
2013-02-21 18:07:00,26.6,9.1,29.82,NW,304,9.0,10.0,47,0.00,,,0.00,meteohub,2013-02-22 01:07:00,
2013-02-21 18:12:00,26.4,9.0,29.82,NW,323,3.0,11.0,47,0.00,,,0.00,meteohub,2013-02-22 01:12:00,
2013-02-21 18:17:00,26.4,9.0,29.83,NNW,339,4.0,11.0,47,0.00,,,0.00,meteohub,2013-02-22 01:17:00,
2013-02-21 18:22:00,26.4,9.3,29.83,WNW,300,4.0,11.0,48,0.00,,,0.00,meteohub,2013-02-22 01:22:00,
2013-02-21 18:27:00,26.2,8.8,29.83,NW,311,5.0,10.0,47,0.00,,,0.00,meteohub,2013-02-22 01:27:00,
2013-02-21 18:32:00,26.4,7.9,29.84,NNW,333,3.0,10.0,45,0.00,,,0.00,meteohub,2013-02-22 01:32:00,
2013-02-21 18:37:00,26.4,7.9,29.84,NNW,336,2.0,9.0,45,0.00,,,0.00,meteohub,2013-02-22 01:37:00,
2013-02-21 18:42:00,25.9,9.3,29.85,North,8,8.0,9.0,49,0.00,,,0.00,meteohub,2013-02-22 01:42:00,
2013-02-21 18:47:00,25.2,10.0,29.85,NW,319,9.0,13.0,52,0.00,,,0.00,meteohub,2013-02-22 01:47:00,
2013-02-21 18:52:00,24.8,10.0,29.85,NW,317,8.0,14.0,53,0.00,,,0.00,meteohub,2013-02-22 01:52:00,
2013-02-21 18:57:00,24.6,9.9,29.86,NNW,338,10.0,14.0,53,0.00,,,0.00,meteohub,2013-02-22 01:57:00,
2013-02-21 19:02:00,24.4,10.2,29.86,NNW,333,8.0,15.0,54,0.00,,,0.00,meteohub,2013-02-22 02:02:00,
2013-02-21 19:07:00,25.3,8.4,29.86,NW,322,15.0,15.0,48,0.00,,,0.00,meteohub,2013-02-22 02:07:00,
2013-02-21 19:12:00,25.2,10.0,29.87,NW,311,8.0,23.0,52,0.00,,,0.00,meteohub,2013-02-22 02:12:00,
2013-02-21 19:17:00,24.6,10.4,29.87,NNW,328,6.0,23.0,54,0.00,,,0.00,meteohub,2013-02-22 02:17:00,
2013-02-21 19:22:00,24.6,9.5,29.87,NW,310,6.0,18.0,52,0.00,,,0.00,meteohub,2013-02-22 02:22:00,
2013-02-21 19:27:00,24.6,9.1,29.88,NNW,328,10.0,16.0,51,0.00,,,0.00,meteohub,2013-02-22 02:27:00,
2013-02-21 19:32:00,25.0,9.0,29.88,NNW,338,8.0,16.0,50,0.00,,,0.00,meteohub,2013-02-22 02:32:00,
2013-02-21 19:37:00,24.4,9.3,29.88,North,359,9.0,17.0,52,0.00,,,0.00,meteohub,2013-02-22 02:37:00,
2013-02-21 19:42:00,23.7,9.5,29.88,NNW,338,8.0,17.0,54,0.00,,,0.00,meteohub,2013-02-22 02:42:00,
2013-02-21 19:47:00,23.7,10.4,29.88,NNE,13,8.0,14.0,56,0.00,,,0.00,meteohub,2013-02-22 02:47:00,
2013-02-21 19:52:00,23.4,10.0,29.88,NW,326,9.0,12.0,56,0.00,,,0.00,meteohub,2013-02-22 02:52:00,
2013-02-21 19:57:00,23.2,9.9,29.89,NNW,335,9.0,13.0,56,0.00,,,0.00,meteohub,2013-02-22 02:57:00,
2013-02-21 20:02:00,23.0,9.7,29.89,NW,322,10.0,13.0,56,0.00,,,0.00,meteohub,2013-02-22 03:02:00,
2013-02-21 20:07:00,23.2,9.3,29.89,WSW,252,0.0,13.0,55,0.00,,,0.00,meteohub,2013-02-22 03:07:00,
2013-02-21 20:12:00,22.3,10.2,29.90,SSE,156,4.0,11.0,59,0.00,,,0.00,meteohub,2013-02-22 03:12:00,
2013-02-21 20:17:00,21.9,10.2,29.90,SSW,207,2.0,10.0,60,0.00,,,0.00,meteohub,2013-02-22 03:17:00,
2013-02-21 20:22:00,21.9,10.2,29.90,SSE,160,5.0,5.0,60,0.00,,,0.00,meteohub,2013-02-22 03:22:00,
2013-02-21 20:27:00,21.2,12.4,29.91,NW,311,5.0,8.0,68,0.00,,,0.00,meteohub,2013-02-22 03:27:00,
2013-02-21 20:32:00,20.5,14.2,29.91,SSW,201,4.0,10.0,76,0.00,,,0.00,meteohub,2013-02-22 03:32:00,
2013-02-21 20:37:00,20.1,14.7,29.91,East,92,5.0,10.0,79,0.00,,,0.00,meteohub,2013-02-22 03:37:00,
2013-02-21 20:42:00,19.8,14.9,29.91,WSW,240,3.0,10.0,81,0.00,,,0.00,meteohub,2013-02-22 03:42:00,
2013-02-21 20:47:00,19.4,14.7,29.92,SSW,193,5.0,10.0,82,0.00,,,0.00,meteohub,2013-02-22 03:47:00,
2013-02-21 20:52:00,19.2,15.3,29.92,SW,236,0.0,10.0,84,0.00,,,0.00,meteohub,2013-02-22 03:52:00,
2013-02-21 20:57:00,18.9,14.9,29.92,SSE,153,5.0,12.0,84,0.00,,,0.00,meteohub,2013-02-22 03:57:00,
2013-02-21 21:02:00,18.5,14.7,29.92,SSE,149,0.0,12.0,85,0.00,,,0.00,meteohub,2013-02-22 04:02:00,
2013-02-21 21:07:00,18.1,14.9,29.92,SSW,207,4.0,12.0,87,0.00,,,0.00,meteohub,2013-02-22 04:07:00,
2013-02-21 21:12:00,18.0,14.7,29.93,SW,233,6.0,10.0,87,0.00,,,0.00,meteohub,2013-02-22 04:12:00,
2013-02-21 21:17:00,17.8,14.5,29.93,SW,233,6.0,10.0,87,0.00,,,0.00,meteohub,2013-02-22 04:17:00,
2013-02-21 21:22:00,17.4,14.5,29.93,South,170,4.0,10.0,88,0.00,,,0.00,meteohub,2013-02-22 04:22:00,
2013-02-21 21:27:00,17.2,14.5,29.94,ESE,111,5.0,8.0,89,0.00,,,0.00,meteohub,2013-02-22 04:27:00,
2013-02-21 21:32:00,17.2,14.5,29.94,SSW,203,6.0,8.0,89,0.00,,,0.00,meteohub,2013-02-22 04:32:00,
2013-02-21 21:37:00,17.1,14.7,29.94,SSW,198,3.0,8.0,90,0.00,,,0.00,meteohub,2013-02-22 04:37:00,
2013-02-21 21:42:00,16.9,14.5,29.94,SSW,201,3.0,7.0,90,0.00,,,0.00,meteohub,2013-02-22 04:42:00,
2013-02-21 21:47:00,17.1,14.7,29.94,SSW,208,1.0,7.0,90,0.00,,,0.00,meteohub,2013-02-22 04:47:00,
2013-02-21 21:52:00,16.9,14.5,29.94,SSW,195,2.0,6.0,90,0.00,,,0.00,meteohub,2013-02-22 04:52:00,
2013-02-21 21:57:00,16.9,14.5,29.94,SW,217,4.0,6.0,90,0.00,,,0.00,meteohub,2013-02-22 04:57:00,
2013-02-21 22:00:00,16.9,14.5,29.95,WSW,248,7.0,7.0,90,0.00,,,0.00,meteohub,2013-02-22 05:00:00,
2013-02-21 22:02:00,16.9,14.5,29.95,South,186,4.0,7.0,90,0.00,,,0.00,meteohub,2013-02-22 05:02:00,
2013-02-21 22:03:00,16.9,14.5,29.95,SSW,197,1.0,7.0,90,0.00,,,0.00,meteohub,2013-02-22 05:03:00,
2013-02-21 22:06:00,16.9,14.2,29.95,SW,221,3.0,7.0,89,0.00,,,0.00,meteohub,2013-02-22 05:06:00,
2013-02-21 22:12:00,16.9,14.5,29.95,SW,214,3.0,7.0,90,0.00,,,0.00,meteohub,2013-02-22 05:12:00,
2013-02-21 22:17:00,16.7,14.4,29.95,SSE,156,2.0,5.0,90,0.00,,,0.00,meteohub,2013-02-22 05:17:00,
2013-02-21 22:22:00,16.5,14.2,29.95,South,169,6.0,7.0,90,0.00,,,0.00,meteohub,2013-02-22 05:22:00,
2013-02-21 22:27:00,16.3,14.2,29.95,South,191,5.0,7.0,91,0.00,,,0.00,meteohub,2013-02-22 05:27:00,
2013-02-21 22:32:00,16.3,14.2,29.95,SE,141,7.0,7.0,91,0.00,,,0.00,meteohub,2013-02-22 05:32:00,
2013-02-21 22:37:00,16.2,14.0,29.96,SSW,201,2.0,7.0,91,0.00,,,0.00,meteohub,2013-02-22 05:37:00,
2013-02-21 22:42:00,16.0,13.8,29.96,SSW,208,0.0,7.0,91,0.00,,,0.00,meteohub,2013-02-22 05:42:00,
2013-02-21 22:47:00,16.0,14.0,29.96,SW,219,3.0,8.0,92,0.00,,,0.00,meteohub,2013-02-22 05:47:00,
2013-02-21 22:52:00,16.0,14.4,29.96,SW,229,2.0,8.0,93,0.00,,,0.00,meteohub,2013-02-22 05:52:00,
2013-02-21 22:57:00,16.2,14.5,29.96,SW,230,3.0,8.0,93,0.00,,,0.00,meteohub,2013-02-22 05:57:00,
2013-02-21 23:02:00,16.3,14.4,29.95,SW,221,2.0,6.0,92,0.00,,,0.00,meteohub,2013-02-22 06:02:00,
2013-02-21 23:07:00,16.3,14.2,29.96,West,267,2.0,4.0,91,0.00,,,0.00,meteohub,2013-02-22 06:07:00,
2013-02-21 23:12:00,16.5,14.5,29.96,WSW,246,0.0,4.0,92,0.00,,,0.00,meteohub,2013-02-22 06:12:00,
2013-02-21 23:17:00,16.2,13.8,29.96,NW,318,0.0,3.0,90,0.00,,,0.00,meteohub,2013-02-22 06:17:00,
2013-02-21 23:22:00,16.3,13.5,29.96,West,277,0.0,3.0,88,0.00,,,0.00,meteohub,2013-02-22 06:22:00,
2013-02-21 23:27:00,16.3,13.1,29.96,WSW,238,0.0,2.0,87,0.00,,,0.00,meteohub,2013-02-22 06:27:00,
2013-02-21 23:32:00,16.5,13.6,29.96,NW,326,0.0,1.0,88,0.00,,,0.00,meteohub,2013-02-22 06:32:00,
2013-02-21 23:37:00,16.2,12.4,29.96,WSW,252,1.0,1.0,85,0.00,,,0.00,meteohub,2013-02-22 06:37:00,
2013-02-21 23:42:00,16.2,12.4,29.96,NNE,26,1.0,1.0,85,0.00,,,0.00,meteohub,2013-02-22 06:42:00,
2013-02-21 23:47:00,16.0,11.7,29.96,NNW,339,0.0,3.0,83,0.00,,,0.00,meteohub,2013-02-22 06:47:00,
2013-02-21 23:52:00,16.0,12.2,29.96,NNW,339,1.0,3.0,85,0.00,,,0.00,meteohub,2013-02-22 06:52:00,
2013-02-21 23:57:00,15.6,11.3,29.97,WSW,239,1.0,3.0,83,0.00,,,0.00,meteohub,2013-02-22 06:57:00,